Погода в Шалговааре

Россия / Республика Карелия     63°30′39″N   33°15′09″E
темп.,
°C
ветер,
м/с
пор.,
м/с
влажн.,
%
обл.,
%
осадки,
мм/ч
давл.,
гПа
погр.,
м
4 марта, чт
чт400:00−6ссз389599 0.2 997333
03:00−9ссз369694 0.3 999152
06:00−10сз389671 0.0 999237
09:00−9сз4109581 0.1 1000361
12:00−7сз4890100 0.0 1000458
15:00−7сз5889100 0.1 1001657
18:00−7сз3795100 0.2 1001397
21:00−7сз389699 0.7 1002376
5 марта, пт
пт500:00−11с4991100 0.6 1003462
03:00−16ссз349264 0.6 100685
06:00−15сз249466 0.0 1007114
09:00−14сз269383 0.1 1008225
12:00−10сз248943 0.0 1009253
15:00−8зсз358636 0.0 1011675
18:00−9сз3893100 0.1 1011347
21:00−11зсз289584 0.1 1012201
6 марта, сб
сб600:00−12зсз259583 0.0 1013121
03:00−14зсз239657 0.0 101257
06:00−15з24950 0.0 101175
09:00−14зюз38950 0.0 1009184
12:00−9ююз368710 0.0 1006293
15:00−7ююз5118049 0.0 1001798
18:00−8ю61292100 0.1 995933
21:00−7ююв71393100 1.1 988956
7 марта, вс
вс700:00−7юв61294100 1.7 983791
03:00−7вюв61294100 3.9 981704
06:00−8всв71294100 3.3 981825
09:00−9всв81491100 5.4 984886
12:00−10св71389100 0.5 989773
15:00−10св71391100 0.9 9941001
18:00−12ссв81489100 0.5 999798
21:00−16ссв61491100 0.6 1004594
8 марта, пн
пн800:00−18с61392100 0.1 1007507
03:00−20с5139597 0.1 1010467
06:00−21с41197100 0.0 1013380
09:00−21с41096100 0.0 1015387
12:00−17с489092 0.0 1016442
15:00−14с368786 0.0 1018581
18:00−17ссз229491 0.0 101820
21:00−19сз129745 0.0 102020